Regional Weather Roundup
Issued by NWS Sterling, VA

Home | Current Version | Previous Version | Text Only | Print | Product List | Glossary On
Versions: 1 2 3 4 5 6 7 8 9 10 11 12 13 14 15 16 17 18 19 20 21 22 23 24 25 26 27
000
ASUS41 KLWX 250711
RWRLWX

REGIONAL WEATHER ROUNDUP
NATIONAL WEATHER SERVICE BALTIMORE MD/WASHINGTON DC
300 AM EDT TUE JUL 25 2017

Note: "FAIR" indicates few or no clouds below 12,000 feet
with no significant weather and/or obstructions to visibility.
 TC=TEMPERATURE CELSIUS

 * =Non NWS site. Station does not report precipitation (e.g. rain,
    snow, etc.), thunder, or fog.

DCZ001-MDZ009-015-VAZ040>042-051-053>054-250800-
WASHINGTON METRO

CITY           SKY/WX    TMP DP  RH WIND       PRES   REMARKS
WASHINGTON NAT CLOUDY    77  63  61 N16       29.97R
DULLES         MOCLDY    74  60  61 N9        29.98R
ANDREWS AFB    FAIR      74  65  74 N8        29.96R
FT BELVOIR     FAIR      76  61  59 NW7       29.97R
QUANTICO       FAIR      78  66  66 N13       29.97R
COLLEGE PARK*  FAIR      73  64  72 NW5       29.96R
LEESBURG*      FAIR      73  63  68 N9        30.00R
GAITHERSBURG*  FAIR      70  60  70 CALM      30.00R

$$

MDZ006>007-011-014-250800-
BALTIMORE METRO

CITY           SKY/WX    TMP DP  RH WIND       PRES   REMARKS
BWI AIRPORT    FAIR      70  68  93 NW5       29.96R
MD SCIENCE CTR   N/A     75  65  70 MISG      29.96R
MARTIN STATE   FAIR      70  68  94 CALM      29.97R
ANNAPOLIS      FAIR      77  70  79 N9        29.94R
FORT MEADE*    FAIR      70  64  83 CALM      29.98R

$$

MDZ012-015-019>023-250800-
MARYLAND EASTERN SHORE

CITY           SKY/WX    TMP DP  RH WIND       PRES   REMARKS
OCEAN CITY     MOCLDY    71  70  96 N6        29.90F
SALISBURY      NOT AVBL
BAY BRIDGE AP* FAIR      77  64  65 N10G18    29.94S
CAMBRIDGE*     CLEAR     73  72  94 NE5       29.93R
EASTON*        FAIR      73  70  90 CALM      29.98R

$$

MDZ017>025-250800-
SOUTHERN MARYLAND

CITY           SKY/WX    TMP DP  RH WIND       PRES   REMARKS
PATUXENT RIVER FAIR      78  71  79 N17       29.93R
ST INIGOES     FAIR      80  70  71 VRB6      29.92R
LEONARDTOWN*   FAIR      77  68  73 CALM      29.96R

$$

MDZ003>005-250800-
NORTH CENTRAL MARYLAND

CITY           SKY/WX    TMP DP  RH WIND       PRES   REMARKS
FREDERICK*     FAIR      72  55  56 N9        30.02R
HAGERSTOWN APT FAIR      67  58  72 W7        30.01R
WESTMINSTER*   FAIR      70  61  73 NW6       29.99R

$$

MDZ501>502-250800-
WESTERN MARYLAND

CITY           SKY/WX    TMP DP  RH WIND       PRES   REMARKS
OAKLAND*       CLOUDY    54  54 100 NW7       30.09R
CUMBERLAND*    MOCLDY    68  54  60 NW3       30.08R

$$

VAZ025>031-250800-
SHENANDOAH VALLEY

CITY           SKY/WX    TMP DP  RH WIND       PRES   REMARKS
WINCHESTER*    FAIR      66  55  68 N5        30.02R
FRONT ROYAL*   FAIR      70  63  78 CALM      30.00S
LURAY*         FAIR      73  64  73 N6        30.00R
NEW MARKET*    FAIR      68  64  87 CALM      30.00S
STAUNTON*      FAIR      67  62  83 CALM      30.03S
WAYNESBORO*    FAIR      72  64  77 NW6       30.02S

$$

WVZ021-048>050-054>055-250800-
EASTERN WEST VIRGINIA PANHANDLE

CITY           SKY/WX    TMP DP  RH WIND       PRES   REMARKS
MARTINSBURG    FAIR      69  56  62 N9        30.00S
PETERSBURG*    FAIR      71  60  68 N8        30.04S

$$

VAZ036>039-050-250800-
CENTRAL FOOTHILLS

CITY           SKY/WX    TMP DP  RH WIND       PRES   REMARKS
CHARLOTTESVILL FAIR      77  64  64 N3        29.97R
CULPEPER*      FAIR      74  65  72 N8        29.99R
ORANGE*        FAIR      72  64  78 CALM      29.97R
GORDONSVILLE*  FAIR      71  67  86 CALM      29.97R
WARRENTON*     FAIR      73  64  71 N5        29.98R

$$

VAZ055>057-250800-
NORTH AND CENTRAL PIEDMONT

CITY           SKY/WX    TMP DP  RH WIND       PRES   REMARKS
FREDERICKSBRG* FAIR      77  67  71 MISG      29.96R
STAFFORD*      FAIR      75  64  70 N7G16     30.01R

$$

NCZ024-NYZ072-PAZ021-071-VAZ022-071-250800-
OTHER REGIONAL OBSERVATIONS

CITY           SKY/WX    TMP DP  RH WIND       PRES   REMARKS
NEW YORK CITY  CLOUDY    63  58  83 NE6       30.01S
PHILADELPHIA   CLOUDY    67  65  93 NE7       29.95S
PITTSBURGH     CLOUDY    64  56  75 NW7       30.08S
ROANOKE        FAIR      75  66  73 NW7       30.04S
RICHMOND       FAIR      78  69  73 N8        29.95R
RALEIGH        MOCLDY    77  75  93 SW5       29.98S

$$

ANZ530>537-250800-
MARINE OBSERVATIONS

STATION/POSITION TIME  TEMP    WIND        PRES
                       AIR SEA DIR/SP/G
                 (UTC) (F)     (DEG/KT/KT) (MB)
THOMAS PT LIGHT  0700   76 82  350/ 17/ 18   N/A
BALT KEY BRIDGE  0648          350/ 10/ 12 1014.0R
COVE POINT       0648           20/ 17/ 22 1014.2R
LEWISETTA        0636           30/ 11/ 18 1013.2R
SOLOMONS ISLAND  0636           10/  9/ 13   N/A
PINEY POINT      0648           30/ 10/ 13   N/A

$$





USA.gov is the U.S. government's official web portal to all federal, state and local government web resources and services.